This demonstration page uses our WeatherBlox Daily Observations layout. Learn more.

Left ArrowRight Arrow

41.55636, -103.73856

Hourly Observations for December 14, 2017

Temp ( °F °C ) Dew Point ( °F °C ) Humidity (%) Winds ( mph kmh ) Pressure ( in mb ) Visibility ( mi km ) Precip ( " mm )
12:53 am 00:53 Cloudy 36 2.2 25 -3.9 64 64 WNW 13 20 30.15 1021 10 16 N/A
1:53 am 01:53 Cloudy 36 2.2 22 -5.6 57 57 WNW 13 20 30.14 1021 10 16 N/A
2:53 am 02:53 Cloudy 36 2.2 21 -6.1 55 55 WNW 10 17 30.15 1021 10 16 N/A
3:53 am 03:53 Mostly Cloudy 35 1.7 23 -5 61 61 WNW 15 24 30.16 1021 10 16 N/A
4:53 am 04:53 Cloudy 35 1.7 24 -4.4 64 64 W 10 17 30.16 1021 10 16 N/A
5:53 am 05:53 Cloudy 35 1.7 24 -4.4 64 64 WNW 13 20 30.16 1022 10 16 N/A
6:53 am 06:53 Cloudy 36 2.2 24 -4.4 62 62 NW 18 30 30.18 1022 10 16 N/A
7:53 am 07:53 Cloudy 38 3.3 24 -4.4 57 57 NW 20 31 30.19 1022 10 16 N/A
8:53 am 08:53 Sunny 36 2.2 22 -5.6 57 57 NNW 32 52 30.22 1024 10 16 N/A
9:53 am 09:53 Mostly Sunny 37 2.8 21 -6.1 52 52 NNW 35 56 30.24 1024 10 16 N/A
10:53 am 10:53 Windy with Snow Likely 33 0.6 23 -5 66 66 NNW 26 43 30.28 1026 8 13 N/A
11:53 am 11:53 Cloudy 36 2.2 21 -6.1 55 55 NNW 26 43 30.27 1025 10 16 N/A
12:53 pm 12:53 Cloudy 35 1.7 22 -5.6 59 59 NNW 28 44 30.27 1025 10 16 N/A
1:53 pm 13:53 Cloudy 35 1.7 20 -6.7 54 54 NNW 28 44 30.26 1025 10 16 N/A
2:53 pm 14:53 Cloudy 35 1.7 19 -7.2 52 52 NNW 21 33 30.27 1025 10 16 N/A
3:53 pm 15:53 Cloudy 34 1.1 20 -6.7 56 56 NNW 20 31 30.28 1025 10 16 N/A
4:53 pm 16:53 Clear 30 -1.1 19 -7.2 64 64 NNW 10 17 30.30 1026 10 16 N/A
5:53 pm 17:53 Clear 22 -5.6 17 -8.3 82 82 NNW 9 15 30.32 1027 10 16 N/A
6:53 pm 18:53 Clear 22 -5.6 17 -8.3 82 82 WSW 7 11 30.31 1026 10 16 N/A
7:53 pm 19:53 Clear 19 -7.2 15 -9.4 84 84 NNW 6 9 30.30 1026 10 16 N/A
8:53 pm 20:53 Clear 15 -9.4 12 -11.1 88 88 N N/A 30.31 1026 10 16 N/A
9:53 pm 21:53 Clear 16 -8.9 12 -11.1 84 84 NE 5 7 30.28 1025 10 16 N/A
10:53 pm 22:53 Clear 14 -10 10 -12.2 84 84 N N/A 30.28 1025 10 16 N/A
11:53 pm 23:53 Clear 14 -10 9 -12.8 80 80 ENE 3 6 30.24 1024 10 16 N/A

Powered by AerisWeather